Date String (YYYY-MM-DD hh:mm:ss) UTC,Instrument flags,absolute air pressure of the measurement (hPa),sample flow rate (lpm),inlet stack bypass flow (lpm),air temperature of the measurement (°C),ambient temperature measured by the external sensor (°C),aerosol sample conditioner tube jacket temperature (°C),OPC LED temperature (°C),internal box temperature (°C),relative humidity of the measurement (%),span deviation,mass concentration of particles derived from Lorenz-Mie calculation of OPC scattering (μg/m³),mass concentration of particles derived from Lorenz-Mie calculation of OPC scattering (μg/m³),mass concentration of particles derived from Lorenz-Mie calculation of OPC scattering (μg/m³)
DateTimeUTC,F1_M11,P_M11,Q1_M11,Q2_M11,T1_M11,T2_M11,T3_M11,T4_M11,T5_M11,U1_M11,ZSPAN_M11,X0_M11,X2_M11,X1_M11
2023-10-22 15:00:00,SystemResetWarning,0827.7,5.00,000.00,028.9,027.4,000.0,037.3,030.6,15.6,0000.0,0015.68,0004.66,0002.49
2023-10-22 15:01:00,SystemResetWarning,0827.7,5.01,000.00,028.9,027.5,000.0,037.3,030.6,15.6,0000.0,0016.63,0004.68,0002.51
2023-10-22 15:02:00,SystemResetWarning,0827.7,5.01,000.00,028.9,027.5,000.0,037.3,030.6,15.7,0000.0,0015.59,0004.64,0002.50
2023-10-22 15:03:00,SystemResetWarning,0827.7,5.01,000.00,028.9,027.5,000.0,037.3,030.6,15.6,0000.0,0016.04,0004.66,0002.50
2023-10-22 15:04:00,SystemResetWarning,0827.7,5.00,000.00,029.0,027.5,000.0,037.3,030.6,15.6,0000.0,0018.02,0004.75,0002.52
2023-10-22 15:05:00,SystemResetWarning,0827.6,5.01,000.00,029.0,027.5,000.0,037.3,030.6,15.6,0000.0,0018.85,0004.82,0002.55
2023-10-22 15:06:00,SystemResetWarning,0827.6,5.00,000.00,029.0,027.5,000.0,037.4,030.6,15.7,0000.0,0018.26,0004.78,0002.54
2023-10-22 15:07:00,SystemResetWarning,0827.6,5.00,000.00,029.0,027.6,000.0,037.4,030.6,15.7,0000.0,0018.90,0004.78,0002.56
2023-10-22 15:08:00,SystemResetWarning,0827.5,5.00,000.00,029.0,027.6,000.0,037.4,030.7,15.7,0000.0,0019.18,0004.82,0002.58
2023-10-22 15:09:00,SystemResetWarning,0827.5,5.00,000.00,029.0,027.6,000.0,037.4,030.7,15.6,0000.0,0019.58,0004.88,0002.59
2023-10-22 15:10:00,SystemResetWarning,0827.5,4.99,000.00,029.0,027.6,000.0,037.4,030.7,15.6,0000.0,0019.29,0004.86,0002.59
2023-10-22 15:11:00,SystemResetWarning,0827.5,5.00,000.00,029.0,027.7,000.0,037.4,030.7,15.6,0000.0,0019.64,0004.85,0002.60
2023-10-22 15:12:00,SystemResetWarning,0827.5,5.00,000.00,029.0,027.7,000.0,037.4,030.7,15.4,0000.0,0020.36,0004.85,0002.60
2023-10-22 15:13:00,SystemResetWarning,0827.5,5.00,000.00,029.1,027.7,000.0,037.4,030.7,15.3,0000.0,0020.80,0004.85,0002.63
2023-10-22 15:14:00,SystemResetWarning,0827.5,5.00,000.00,029.1,027.7,000.0,037.4,030.7,15.4,0000.0,0021.04,0004.88,0002.63
2023-10-22 15:15:00,SystemResetWarning,0827.6,5.00,000.00,029.1,027.7,000.0,037.4,030.7,15.5,0000.0,0019.95,0004.84,0002.63
2023-10-22 15:16:00,SystemResetWarning,0827.6,5.00,000.00,029.1,027.8,000.0,037.5,030.7,15.5,0000.0,0019.38,0004.80,0002.63
2023-10-22 15:17:00,SystemResetWarning,0827.5,5.00,000.00,029.1,027.8,000.0,037.5,030.7,15.4,0000.0,0019.34,0004.81,0002.62
2023-10-22 15:18:00,SystemResetWarning,0827.5,5.00,000.00,029.1,027.8,000.0,037.5,030.7,15.3,0000.0,0019.15,0004.80,0002.64
2023-10-22 15:19:00,SystemResetWarning,0827.5,5.00,000.00,029.1,027.8,000.0,037.5,030.8,15.3,0000.0,0019.07,0004.74,0002.64
2023-10-22 15:20:00,SystemResetWarning,0827.5,5.00,000.00,029.1,027.8,000.0,037.5,030.7,15.4,0000.0,0019.39,0004.72,0002.66
2023-10-22 15:21:00,SystemResetWarning,0827.8,5.00,000.00,029.1,027.8,000.0,037.5,030.8,15.4,0000.0,0019.50,0004.72,0002.68
2023-10-22 15:22:00,SystemResetWarning,0827.8,5.00,000.00,029.2,027.8,000.0,037.5,030.8,15.5,0000.0,0019.35,0004.75,0002.71
2023-10-22 15:23:00,SystemResetWarning,0827.4,5.01,000.00,029.2,027.8,000.0,037.5,030.8,15.5,0000.0,0018.09,0004.75,0002.71
2023-10-22 15:24:00,SystemResetWarning,0827.4,5.00,000.00,029.2,027.8,000.0,037.5,030.8,15.6,0000.0,0017.75,0004.76,0002.70
2023-10-22 15:25:00,SystemResetWarning,0827.4,5.01,000.00,029.2,027.8,000.0,037.5,030.8,15.7,0000.0,0018.13,0004.78,0002.72
2023-10-22 15:26:00,SystemResetWarning,0827.4,5.00,000.00,029.2,027.9,000.0,037.5,030.8,15.5,0000.0,0017.65,0004.77,0002.73
2023-10-22 15:27:00,SystemResetWarning,0827.4,4.99,000.00,029.2,027.9,000.0,037.5,030.9,15.4,0000.0,0017.88,0004.77,0002.74
2023-10-22 15:28:00,SystemResetWarning,0827.4,5.00,000.00,029.2,027.9,000.0,037.6,030.9,15.4,0000.0,0018.47,0004.76,0002.76
2023-10-22 15:29:00,SystemResetWarning,0827.4,5.00,000.00,029.2,027.9,000.0,037.6,030.9,15.3,0000.0,0019.14,0004.79,0002.74
2023-10-22 15:30:00,SystemResetWarning,0827.4,4.99,000.00,029.2,027.9,000.0,037.6,030.9,15.3,0000.0,0020.03,0004.82,0002.75
2023-10-22 15:31:00,SystemResetWarning,0827.4,5.00,000.00,029.3,027.9,000.0,037.6,030.9,15.4,0000.0,0020.27,0004.82,0002.73
2023-10-22 15:32:00,SystemResetWarning,0827.4,5.01,000.00,029.3,027.9,000.0,037.6,030.9,15.3,0000.0,0020.26,0004.82,0002.72
2023-10-22 15:33:00,SystemResetWarning,0827.4,5.00,000.00,029.3,027.9,000.0,037.6,030.9,15.4,0000.0,0020.45,0004.78,0002.69
2023-10-22 15:34:00,SystemResetWarning,0827.4,5.00,000.00,029.3,027.9,000.0,037.6,030.9,15.4,0000.0,0021.43,0004.77,0002.68
2023-10-22 15:35:00,SystemResetWarning,0827.4,5.00,000.00,029.3,027.9,000.0,037.6,030.9,15.4,0000.0,0021.53,0004.81,0002.68
2023-10-22 15:36:00,SystemResetWarning,0827.4,5.00,000.00,029.3,027.9,000.0,037.7,030.9,15.4,0000.0,0020.66,0004.76,0002.66
2023-10-22 15:37:00,SystemResetWarning,0827.4,5.00,000.00,029.3,028.0,000.0,037.7,030.9,15.3,0000.0,0020.28,0004.75,0002.62
2023-10-22 15:38:00,SystemResetWarning,0827.4,4.99,000.00,029.3,028.0,000.0,037.6,030.9,15.1,0000.0,0019.58,0004.75,0002.61
2023-10-22 15:39:00,SystemResetWarning,0827.4,4.99,000.00,029.3,028.0,000.0,037.7,031.0,15.1,0000.0,0018.93,0004.73,0002.59
2023-10-22 15:40:00,SystemResetWarning,0827.4,5.00,000.00,029.3,028.0,000.0,037.7,030.9,15.3,0000.0,0018.93,0004.68,0002.57
2023-10-22 15:41:00,SystemResetWarning,0827.4,5.00,000.00,029.3,028.0,000.0,037.7,031.0,15.5,0000.0,0018.49,0004.65,0002.55
2023-10-22 15:42:00,SystemResetWarning,0827.4,5.00,000.00,029.3,028.0,000.0,037.7,031.0,15.5,0000.0,0018.55,0004.64,0002.54
2023-10-22 15:43:00,SystemResetWarning,0827.4,5.01,000.00,029.3,028.0,000.0,037.7,031.0,15.5,0000.0,0019.27,0004.70,0002.51
2023-10-22 15:44:00,SystemResetWarning,0827.4,5.00,000.00,029.4,028.0,000.0,037.7,031.0,15.6,0000.0,0019.59,0004.69,0002.49
2023-10-22 15:45:00,SystemResetWarning,0827.3,5.00,000.00,029.4,028.0,000.0,037.7,031.0,15.5,0000.0,0020.11,0004.74,0002.48
2023-10-22 15:46:00,SystemResetWarning,0827.3,5.00,000.00,029.4,028.0,000.0,037.7,031.0,15.4,0000.0,0020.42,0004.73,0002.46
2023-10-22 15:47:00,SystemResetWarning,0827.3,5.00,000.00,029.4,028.1,000.0,037.8,031.0,15.0,0000.0,0021.29,0004.77,0002.46
2023-10-22 15:48:00,SystemResetWarning,0827.3,5.00,000.00,029.4,028.1,000.0,037.8,031.0,15.2,0000.0,0021.79,0004.78,0002.48
2023-10-22 15:49:00,SystemResetWarning,0827.2,5.00,000.00,029.4,028.1,000.0,037.8,031.0,15.5,0000.0,0023.21,0004.76,0002.48
2023-10-22 15:50:00,SystemResetWarning,0827.2,5.00,000.00,029.4,028.1,000.0,037.8,031.1,15.6,0000.0,0023.81,0004.70,0002.48
2023-10-22 15:51:00,SystemResetWarning,0827.2,5.00,000.00,029.4,028.1,000.0,037.8,031.0,15.7,0000.0,0023.16,0004.74,0002.51
2023-10-22 15:52:00,SystemResetWarning,0827.2,5.00,000.00,029.4,028.1,000.0,037.8,031.0,15.4,0000.0,0022.35,0004.76,0002.50
2023-10-22 15:53:00,SystemResetWarning,0827.2,4.99,000.00,029.4,028.1,000.0,037.8,031.1,15.4,0000.0,0022.21,0004.70,0002.49
2023-10-22 15:54:00,SystemResetWarning,0827.2,4.99,000.00,029.4,026.9,000.0,037.8,031.1,15.4,0000.0,0021.95,0004.62,0002.51
2023-10-22 15:55:00,SystemResetWarning,0827.2,5.00,000.00,029.3,025.3,000.0,037.7,030.8,15.5,0000.0,0022.73,0004.62,0002.52
2023-10-22 15:56:00,SystemResetWarning,0827.1,5.01,000.00,029.3,025.1,000.0,037.6,030.7,15.8,0000.0,0022.66,0004.65,0002.55
2023-10-22 15:57:00,SystemResetWarning,0827.1,5.01,000.00,029.1,025.3,000.0,037.6,030.5,15.9,0000.0,0022.60,0004.68,0002.57
2023-10-22 15:58:00,SystemResetWarning,0827.1,5.00,000.00,029.1,025.6,000.0,037.6,030.4,15.9,0000.0,0021.36,0004.68,0002.60
2023-10-22 15:59:00,SystemResetWarning,0827.1,5.00,000.00,029.0,026.0,000.0,037.6,030.4,16.1,0000.0,0021.94,0004.68,0002.60
